#timestamp,LO_Frequency,Hit,StdDev 
1515121215.4,286046987.0,N
1515121235.2,286046986.0,N
1515121255.1,286046989.3,N
1515121256.0,286046989.3,N
1515121275.8,286046985.7,N
1515121295.6,286046985.4,N
1515121315.5,286046986.8,N
1515121335.3,286046984.9,N
1515121355.1,286046981.0,N
1515121375.9,286046979.2,N
1515121395.7,286046977.5,N
1515121415.5,286046980.3,N
1515121435.4,286046983.4,N
1515121455.2,286046979.6,N
1515121475.0,286046977.9,N
1515121475.9,286046977.9,N
1515121495.8,286046978.4,N
1515121515.6,286046980.4,N
1515121535.4,286046977.4,N
1515121555.2,286046980.7,N
1515121575.1,286046986.5,N
1515121576.0,286046986.5,N
1515121595.8,286046985.8,N
1515121615.6,286046983.8,N
1515121635.5,286046982.3,N
1515121655.3,286046983.6,N
1515121675.1,286046984.9,N
1515121695.9,286046981.9,Y
1515121715.7,286046996.4,P
1515121735.5,286046995.7,N
1515121755.4,286047001.1,N
1515121775.2,286046999.4,N
1515121795.0,286047000.8,N
1515121796.0,286047000.8,N
1515121815.8,286047007.1,N
1515121835.6,286047010.3,N
1515121855.4,286047005.1,N
1515121875.3,286047006.7,N
1515121895.1,286047004.9,N
1515121915.8,286047007.2,N
1515121935.7,286047010.3,N
1515121955.5,286047009.9,N
1515121975.3,286047009.2,N
1515121995.2,286047004.6,N
1515122015.9,286047010.8,N
1515122035.7,286047008.0,N
1515122055.6,286047010.8,N
1515122075.4,286047012.2,N
1515122095.2,286047012.2,N
1515122115.0,286047010.4,N
1515122116.0,286047010.4,N
1515122135.8,286047009.1,N
1515122155.6,286047011.2,N
1515122175.4,286047011.0,N
1515122195.3,286047012.7,N
1515122215.1,286047013.4,N
1515122235.8,286047010.3,N
1515122255.7,286047005.2,N
1515122275.5,286047004.0,N
1515122295.3,286046998.6,N
1515122315.2,286046998.9,N
1515122335.9,286047001.3,N
1515122355.7,286046998.2,N
1515122375.6,286046999.7,N
1515122395.4,286046999.7,N
1515122415.2,286046997.3,N
1515122435.0,286046998.5,N
1515122436.0,286046998.5,N
1515122455.8,286046998.8,N
1515122475.6,286047000.0,N
1515122495.4,286046997.1,N
1515122515.3,286046993.4,N
1515122535.1,286046992.1,N
1515122555.8,286046989.1,N
1515122575.7,286046987.0,N
1515122595.5,286046988.8,N
1515122615.3,286046985.4,N
1515122635.2,286046986.6,N
1515122655.9,286046986.7,N
1515122675.7,286046984.3,N
1515122695.6,286046985.3,N
1515122715.4,286046984.2,N
1515122735.2,286046983.5,N
1515122755.0,286046979.5,N
1515122756.0,286046979.5,N
1515122775.8,286046979.6,N
1515122795.6,286046979.0,N
1515122815.4,286046977.7,N
1515122835.3,286046981.9,N
1515122855.1,286046979.8,N
1515122875.8,286046980.3,N
1515122895.7,286046977.5,N
1515122915.5,286046979.3,N
1515122935.3,286046981.3,N
1515122955.2,286046983.1,N
1515122975.9,286046982.5,N
1515122995.7,286046983.1,N
1515123015.6,286046983.6,N
1515123035.4,286046980.7,Y
1515123055.2,286046999.6,P
1515123075.1,286047000.3,N
1515123076.0,286047000.3,N
1515123095.8,286047000.2,N
1515123115.6,286046998.8,N
1515123135.5,286046999.3,N
1515123155.3,286046999.0,N
1515123175.1,286046999.4,N
1515123195.9,286047001.0,N
1515123215.7,286046998.4,N
1515123235.5,286046995.0,N
1515123255.3,286046997.0,N
1515123275.2,286046997.2,N
1515123295.0,286046995.2,N
1515123295.9,286046995.2,N
1515123315.7,286046995.9,N
1515123335.6,286046994.0,N
1515123355.4,286046990.5,N
1515123375.2,286046992.6,N
1515123395.1,286046990.7,N
1515123396.0,286046990.7,N
1515123415.8,286046990.9,N
1515123435.6,286046990.4,N
1515123455.5,286046988.8,N
1515123475.3,286046988.7,N
1515123495.1,286046991.4,N
1515123515.8,286046990.3,N
1515123535.7,286046992.3,N
1515123555.5,286046993.6,N
1515123575.3,286046994.5,N
1515123595.2,286046995.4,N
1515123615.9,286046999.2,N
1515123635.7,286046997.6,N
1515123655.6,286046997.0,N
1515123675.4,286046996.9,N
1515123695.2,286046996.8,N
1515123715.1,286046995.3,N
1515123716.0,286046995.3,N
1515123735.8,286046995.1,N
1515123755.6,286046999.4,N
1515123775.5,286046997.4,N
1515123795.3,286046994.7,N
1515123815.1,286046992.4,N
1515123835.9,286046995.9,N
1515123855.7,286046995.3,N
1515123875.5,286047000.8,N
1515123895.3,286047002.2,N
1515123915.2,286046998.7,N
1515123935.0,286046999.2,N
1515123935.9,286046999.2,N
1515123955.7,286046998.4,N
1515123975.6,286046995.3,N
1515123995.4,286046996.9,N
1515124015.2,286046999.6,N
1515124035.1,286046999.4,N
1515124036.0,286046999.4,N
1515124055.8,286047000.2,N
1515124075.6,286047008.6,Y
1515124095.5,286047016.2,P
1515124115.3,286047023.5,N
1515124135.1,286047024.2,N
1515124155.9,286047026.8,N
1515124175.7,286047022.9,N
1515124195.5,286047027.4,N
1515124215.4,286047034.0,Y
1515124235.2,286047018.8,P
1515124255.0,286047012.5,P
1515124255.9,286047012.5,P
1515124275.8,286047014.5,Y
1515124295.6,286047007.9,P
1515124315.4,286047008.0,N
1515124335.3,286047008.1,N
1515124355.1,286047012.0,Y
1515124375.8,286047001.6,P
1515124395.7,286047002.6,N
1515124415.5,286047001.0,N
1515124435.3,286047004.0,N
1515124455.2,286047003.0,N
1515124475.9,286047007.0,N
1515124495.7,286047008.7,N
1515124515.6,286047008.6,N
1515124535.4,286047010.5,Y
1515124555.2,286047004.9,P
1515124575.1,286047006.0,P
1515124576.0,286047006.0,P
1515124595.8,286047005.6,Y
1515124615.6,286046998.3,P
1515124635.5,286046997.0,N
1515124655.3,286046995.8,N
1515124675.1,286046995.4,N
1515124695.9,286046995.7,N
1515124715.7,286046994.3,N
1515124735.5,286046993.1,N
1515124755.4,286046990.5,N
1515124775.2,286046998.0,N
1515124795.0,286046996.4,N
1515124795.9,286046996.4,N
